Weather History for LTBA - April, 2014

Change the Weather History Date:

Friday, April 4, 2014

  Actual Average Record
Temperature  
Mean Temperature 57 °F -  
Max Temperature 66 °F 60 °F 69 °F (2012)
Min Temperature 48 °F 46 °F 32 °F (2005)
Degree Days  
Heating Degree Days 8    
Growing Degree Days 7 (Base 50)    
Moisture  
Dew Point 48 °F    
Average Humidity 73    
Maximum Humidity 94    
Minimum Humidity 46    
Precipitation  
Precipitation 0.00 in - - ()
Sea Level Pressure  
Sea Level Pressure 29.97 in    
Wind  
Wind Speed 4 mph ()    
Max Wind Speed 12 mph    
Max Gust Speed -    
Visibility 4.2 miles    
Events      
Averages and records for this station are not official NWS values.
T = Trace of Precipitation, MM = Missing Value Source: Averaged Metar Reports

Daily Weather History Graph

Daily Weather History Graph

Search for Another Location

Airport or City:

Trip Planner

Search our weather history database for the weather conditions in past years. The results will help you decide how hot, cold, wet, or windy it might be!

Date:

Astronomy

Apr. 04, 2014 Rise Set
Actual Time 6:43 AM EEST 7:32 PM EEST
Civil Twilight 6:15 AM EEST 8:00 PM EEST
Nautical Twilight 5:42 AM EEST 8:33 PM EEST
Astronomical Twilight 5:08 AM EEST 9:07 PM EEST
Moon 9:42 AM EEST (4/4) No Moon Set
Length of Visible Light 13h 44m
Length of Day
12h 48m
Waxing Crescent, 23% of the Moon is Illuminated
Apr 4
Waxing Crescent
Apr 7
First Quarter
Apr 15
Full
Apr 22
Last Quarter
Apr 29
New

Hourly Weather History & Observations

Time (EEST) Temp. Dew Point Humidity Pressure Visibility Wind Dir Wind Speed Gust Speed Precip Events Conditions
12:00 AM 54 °F 39 °F 46% 30.04 in 6 mi ENE 4.6 mph - -  
12:20 AM 53.6 °F 39.2 °F 58% 30.01 in - Variable 1.2 mph - N/A   Clear
12:50 AM 53.6 °F 39.2 °F 58% 30.01 in - Variable 2.3 mph - N/A   Clear
1:20 AM 51.8 °F 39.2 °F 62% 30.01 in - South 4.6 mph - N/A   Clear
1:50 AM 51.8 °F 42.8 °F 71% 30.01 in - SSW 4.6 mph - N/A   Clear
2:20 AM 51.8 °F 44.6 °F 76% 30.01 in - South 4.6 mph - N/A   Clear
2:50 AM 50.0 °F 44.6 °F 82% 30.01 in - Calm Calm - N/A   Clear
3:00 AM 49 °F 44 °F 76% 30.01 in 6 mi Calm Calm - -  
3:20 AM 50.0 °F 46.4 °F 87% 29.98 in - SE 4.6 mph - N/A   Clear
3:50 AM 50.0 °F 46.4 °F 87% 29.98 in - Calm Calm - N/A   Clear
4:20 AM 50.0 °F 48.2 °F 94% 29.98 in - Variable 1.2 mph - N/A   Clear
4:50 AM 48.2 °F 46.4 °F 93% 29.98 in - Calm Calm - N/A   Clear
5:20 AM 50.0 °F 48.2 °F 94% 29.98 in - SSW 4.6 mph - N/A   Clear
6:00 AM 50 °F 48 °F 91% 29.99 in 6 mi SSW 2.3 mph - -  
6:50 AM 50.0 °F 48.2 °F 94% 29.98 in 2.2 mi South 8.1 mph - N/A   Mist
7:20 AM 51.8 °F 48.2 °F 88% 29.98 in 2.2 mi South 9.2 mph - N/A   Mist
7:50 AM 51.8 °F 48.2 °F 88% 29.98 in 2.5 mi South 5.8 mph - N/A   Mist
8:20 AM 51.8 °F 48.2 °F 88% 29.98 in 2.5 mi South 5.8 mph - N/A   Mist
8:50 AM 53.6 °F 48.2 °F 82% 29.98 in 2.5 mi South 3.5 mph - N/A   Mist
9:00 AM 53 °F 49 °F 80% 29.99 in 2 mi South 3.5 mph - -   Mist
9:20 AM 53.6 °F 50.0 °F 88% 29.98 in - SW 4.6 mph - N/A   Mist
9:50 AM 55.4 °F 50.0 °F 82% 29.98 in 3.1 mi SSW 4.6 mph - N/A   Mist
10:20 AM 55.4 °F 50.0 °F 82% 29.98 in 4.3 mi SSW 8.1 mph - N/A   Unknown
10:50 AM 57.2 °F 50.0 °F 77% 29.98 in 4.3 mi SW 11.5 mph - N/A   Unknown
11:20 AM 59.0 °F 46.4 °F 63% 30.01 in - WSW 9.2 mph - N/A   Clear
11:50 AM 59.0 °F 48.2 °F 67% 29.98 in - WSW 10.4 mph - N/A   Clear
12:00 PM 59 °F 48 °F 58% 30.00 in 6 mi WSW 10.4 mph - -  
12:20 PM 60.8 °F 48.2 °F 63% 29.98 in - WSW 9.2 mph - N/A   Clear
12:50 PM 62.6 °F 48.2 °F 59% 29.98 in - WSW 9.2 mph - N/A   Clear
1:20 PM 62.6 °F 48.2 °F 59% 29.98 in - WSW 8.1 mph - N/A   Clear
1:50 PM 62.6 °F 46.4 °F 55% 29.98 in - WSW 4.6 mph - N/A   Clear
2:20 PM 64.4 °F 50.0 °F 59% 29.95 in - WSW 5.8 mph - N/A   Clear
2:50 PM 64.4 °F 50.0 °F 59% 29.95 in - WSW 4.6 mph - N/A   Clear
3:00 PM 64 °F 49 °F 48% 29.96 in 6 mi WSW 4.6 mph - -  
3:20 PM 64.4 °F 50.0 °F 59% 29.95 in - Variable 2.3 mph - N/A   Clear
3:50 PM 66.2 °F 50.0 °F 56% 29.92 in - West 4.6 mph - N/A   Clear
4:20 PM 64.4 °F 50.0 °F 59% 29.92 in - Calm Calm - N/A   Clear
4:50 PM 64.4 °F 50.0 °F 59% 29.92 in - Calm Calm - N/A   Clear
5:20 PM 62.6 °F 50.0 °F 63% 29.92 in - Calm Calm - N/A   Clear
5:50 PM 60.8 °F 50.0 °F 68% 29.92 in - Calm Calm - N/A   Clear
6:00 PM 61 °F 50 °F 57% 29.93 in 6 mi Calm Calm - -  
6:20 PM 60.8 °F 50.0 °F 68% 29.92 in - Calm Calm - N/A   Clear
6:50 PM 60.8 °F 50.0 °F 68% 29.92 in - Calm Calm - N/A   Clear
7:20 PM 59.0 °F 50.0 °F 72% 29.95 in - Variable 2.3 mph - N/A   Clear
7:50 PM 59.0 °F 51.8 °F 77% 29.95 in - WSW 5.8 mph - N/A   Clear
8:20 PM 59.0 °F 51.8 °F 77% 29.95 in - West 4.6 mph - N/A   Clear
8:50 PM 59.0 °F 51.8 °F 77% 29.95 in - West 5.8 mph - N/A   Clear
9:00 PM 59 °F 51 °F 67% 29.97 in 6 mi West 5.8 mph - -  
9:20 PM 59.0 °F 51.8 °F 77% 29.95 in - West 4.6 mph - N/A   Clear
9:50 PM 59.0 °F 51.8 °F 77% 29.98 in - WSW 4.6 mph - N/A   Clear
10:20 PM 57.2 °F 51.8 °F 82% 29.98 in - SSW 4.6 mph - N/A   Clear
10:50 PM 57.2 °F 51.8 °F 82% 29.98 in - South 5.8 mph - N/A   Clear
11:20 PM 55.4 °F 51.8 °F 88% 29.98 in - SSW 8.1 mph - N/A   Clear
11:50 PM 55.4 °F 51.8 °F 88% 29.98 in - SW 6.9 mph - N/A   Clear